QPF
0.01 0.01 0.01 0.02 0.04 0.06 0.05 0.04 0.03 0.02 0.02 0.01 0.01 0.01 0.01 0.01 0.01 0.01 0.02 0.03 0.04 0.03 0.03 0.05 0.05 0.06 0.06 0.06 0.07 0.05 0.04 0.04 0.04 0.04 0.04 0.04 0.05 0.06 0.06 0.06 0.05 0.04 0.05
0.00 0.01 0.01 0.02 0.04 0.04 0.04 0.03 0.02 0.02 0.01 0.01 0.01 0.01 0.01 0.01 0.01 0.01 0.02 0.02 0.03 0.04 0.03 0.03 0.03 0.04 0.04 0.06 0.06 0.04 0.04 0.03 0.04 0.05 0.04 0.04 0.05 0.07 0.08 0.07 0.04 0.03 0.05
0.00 0.00 0.01 0.01 0.02 0.02 0.02 0.01 0.01 0.01 0.01 0.01 0.01 0.01 0.01 0.01 0.01 0.01 0.02 0.02 0.02 0.03 0.03 0.03 0.03 0.03 0.04 0.04 0.04 0.05 0.04 0.05 0.06 0.05 0.04 0.02 0.04 0.08 0.08 0.08 0.05 0.04 0.03
0.00 0.00 0.00 0.01 0.01 0.01 0.01 0.01 0.01 0.01 0.00 0.00 0.01 0.01 0.01 0.01 0.01 0.01 0.01 0.01 0.01 0.01 0.02 0.02 0.03 0.03 0.03 0.03 0.03 0.05 0.05 0.08 0.09 0.07 0.03 0.02 0.01 0.05 0.05 0.05 0.04 0.02 0.02
0.00 0.00 0.00 0.00 0.01 0.01 0.01 0.01 0.00 0.00 0.00 0.00 0.01 0.01 0.01 0.01 0.01 0.01 0.01 0.01 0.01 0.01 0.01 0.01 0.02 0.02 0.02 0.03 0.03 0.05 0.07 0.09 0.12 0.09 0.05 0.02 0.02 0.05 0.04 0.03 0.02 0.01 0.03
0.00 0.00 0.00 0.00 0.00 0.01 0.01 0.01 0.00 0.00 0.00 0.00 0.00 0.01 0.01 0.01 0.01 0.01 0.01 0.01 0.01 0.01 0.01 0.00 0.01 0.01 0.01 0.02 0.03 0.04 0.06 0.08 0.08 0.06 0.04 0.03 0.03 0.05 0.03 0.02 0.02 0.01 0.03
0.00 0.00 0.00 0.00 0.00 0.00 0.01 0.00 0.00 0.00 0.00 0.00 0.00 0.00 0.01 0.01 0.01 0.01 0.01 0.01 0.01 0.01 0.01 0.01 0.00 0.01 0.01 0.02 0.02 0.04 0.07 0.10 0.08 0.07 0.05 0.03 0.02 0.03 0.02 0.02 0.02 0.01 0.02
0.00 0.00 0.00 0.00 0.00 0.00 0.00 0.00 0.00 0.00 0.00 0.00 0.00 0.00 0.01 0.01 0.01 0.01 0.01 0.01 0.00 0.01 0.01 0.00 0.00 0.00 0.01 0.01 0.02 0.04 0.07 0.08 0.09 0.09 0.06 0.03 0.02 0.02 0.01 0.01 0.02 0.02 0.02
0.01 0.00 0.00 0.00 0.00 0.00 0.00 0.00 0.01 0.01 0.00 0.00 0.00 0.00 0.01 0.01 0.01 0.01 0.01 0.00 0.00 0.00 0.00 0.00 0.00 0.01 0.01 0.02 0.03 0.04 0.07 0.07 0.08 0.10 0.09 0.03 0.03 0.02 0.02 0.01 0.02 0.03 0.03
0.03 0.01 0.00 0.01 0.01 0.00 0.00 0.01 0.01 0.00 0.00 0.00 0.00 0.00 0.01 0.01 0.01 0.01 0.01 0.01 0.00 0.01 0.01 0.00 0.00 0.01 0.01 0.02 0.04 0.05 0.08 0.10 0.12 0.14 0.12 0.04 0.03 0.02 0.02 0.04 0.04 0.04 0.05
0.05 0.03 0.01 0.01 0.02 0.00 0.00 0.01 0.00 0.00 0.00 0.00 0.00 0.00 0.01 0.01 0.00 0.01 0.01 0.01 0.01 0.01 0.01 0.01 0.01 0.00 0.01 0.02 0.04 0.05 0.07 0.14 0.14 0.09 0.06 0.03 0.03 0.02 0.01 0.04 0.06 0.07 0.05
0.03 0.03 0.02 0.01 0.01 0.01 0.01 0.01 0.01 0.00 0.00 0.00 0.00 0.00 0.01 0.01 0.01 0.02 0.01 0.02 0.02 0.02 0.01 0.01 0.01 0.01 0.01 0.02 0.04 0.06 0.11 0.17 0.14 0.11 0.07 0.05 0.03 0.02 0.01 0.01 0.01 0.02 0.02
0.02 0.01 0.01 0.01 0.01 0.02 0.02 0.02 0.02 0.01 0.01 0.01 0.01 0.01 0.02 0.02 0.02 0.04 0.02 0.01 0.02 0.01 0.01 0.01 0.01 0.02 0.04 0.07 0.08 0.12 0.13 0.13 0.11 0.05 0.05 0.04 0.04 0.04 0.03 0.02 0.01 0.01 0.01
0.04 0.02 0.01 0.02 0.01 0.02 0.02 0.03 0.02 0.02 0.02 0.02 0.01 0.01 0.02 0.02 0.04 0.06 0.03 0.02 0.02 0.02 0.02 0.01 0.02 0.04 0.06 0.08 0.09 0.11 0.11 0.15 0.10 0.03 0.02 0.02 0.03 0.04 0.03 0.03 0.02 0.02 0.02
0.09 0.08 0.03 0.02 0.02 0.02 0.02 0.03 0.03 0.02 0.02 0.02 0.02 0.02 0.01 0.02 0.03 0.04 0.04 0.06 0.05 0.03 0.02 0.02 0.03 0.04 0.06 0.06 0.06 0.08 0.09 0.09 0.09 0.04 0.01 0.02 0.03 0.04 0.05 0.04 0.04 0.03 0.03
0.12 0.11 0.09 0.04 0.03 0.03 0.02 0.02 0.03 0.02 0.02 0.03 0.02 0.02 0.02 0.02 0.03 0.03 0.03 0.04 0.04 0.02 0.03 0.02 0.03 0.04 0.04 0.04 0.04 0.05 0.06 0.07 0.13 0.06 0.02 0.02 0.03 0.03 0.04 0.05 0.04 0.03 0.03
0.09 0.09 0.11 0.09 0.06 0.04 0.03 0.03 0.02 0.03 0.02 0.02 0.02 0.02 0.03 0.03 0.03 0.03 0.02 0.02 0.03 0.02 0.03 0.03 0.03 0.03 0.03 0.03 0.04 0.04 0.05 0.07 0.11 0.07 0.04 0.03 0.02 0.03 0.05 0.05 0.05 0.05 0.04
0.09 0.11 0.09 0.09 0.09 0.08 0.04 0.04 0.03 0.04 0.02 0.03 0.03 0.03 0.03 0.04 0.05 0.03 0.02 0.02 0.02 0.03 0.02 0.03 0.03 0.03 0.06 0.04 0.05 0.06 0.06 0.06 0.07 0.06 0.04 0.03 0.03 0.03 0.04 0.05 0.06 0.07 0.05
0.09 0.11 0.09 0.10 0.10 0.08 0.04 0.03 0.03 0.02 0.02 0.02 0.06 0.07 0.04 0.04 0.06 0.03 0.02 0.01 0.01 0.02 0.02 0.02 0.02 0.03 0.05 0.04 0.03 0.05 0.05 0.05 0.06 0.06 0.06 0.04 0.05 0.05 0.03 0.04 0.06 0.06 0.06
0.09 0.10 0.09 0.10 0.10 0.08 0.04 0.03 0.04 0.03 0.02 0.02 0.04 0.06 0.07 0.07 0.03 0.02 0.01 0.01 0.01 0.01 0.01 0.02 0.02 0.02 0.03 0.04 0.05 0.06 0.07 0.08 0.09 0.09 0.07 0.06 0.05 0.05 0.04 0.04 0.03 0.03 0.05
0.08 0.07 0.07 0.09 0.10 0.08 0.06 0.04 0.04 0.03 0.02 0.02 0.02 0.02 0.05 0.07 0.04 0.03 0.02 0.01 0.01 0.01 0.01 0.01 0.02 0.02 0.02 0.03 0.05 0.06 0.07 0.08 0.08 0.08 0.06 0.06 0.07 0.06 0.06 0.05 0.03 0.03 0.03
0.06 0.06 0.06 0.07 0.07 0.06 0.04 0.04 0.04 0.04 0.03 0.03 0.03 0.03 0.03 0.04 0.03 0.02 0.02 0.01 0.01 0.01 0.01 0.01 0.01 0.01 0.01 0.01 0.02 0.03 0.04 0.04 0.03 0.04 0.04 0.04 0.06 0.07 0.06 0.03 0.03 0.03 0.03
0.09 0.07 0.05 0.06 0.07 0.06 0.05 0.06 0.07 0.07 0.07 0.07 0.06 0.04 0.02 0.02 0.02 0.03 0.04 0.02 0.01 0.01 0.01 0.01 0.01 0.01 0.01 0.01 0.01 0.01 0.01 0.01 0.02 0.03 0.04 0.03 0.02 0.03 0.04 0.03 0.03 0.03 0.01
0.09 0.09 0.08 0.08 0.08 0.08 0.08 0.08 0.08 0.06 0.05 0.04 0.04 0.05 0.03 0.01 0.02 0.03 0.02 0.01 0.01 0.01 0.01 0.01 0.00 0.00 0.00 0.00 0.01 0.01 0.01 0.01 0.01 0.01 0.02 0.02 0.02 0.01 0.02 0.02 0.03 0.02 0.01
0.07 0.08 0.10 0.11 0.09 0.07 0.06 0.07 0.10 0.09 0.06 0.05 0.05 0.05 0.03 0.02 0.01 0.01 0.01 0.01 0.01 0.01 0.01 0.00 0.01 0.00 0.00 0.01 0.01 0.01 0.01 0.00 0.00 0.01 0.01 0.02 0.02 0.01 0.00 0.01 0.01 0.01 0.01
0.07 0.07 0.09 0.09 0.06 0.05 0.05 0.07 0.09 0.10 0.08 0.07 0.05 0.05 0.05 0.04 0.02 0.01 0.02 0.02 0.01 0.01 0.01 0.01 0.01 0.00 0.00 0.00 0.01 0.00 0.01 0.00 0.00 0.00 0.00 0.00 0.01 0.01 0.00 0.00 0.00 0.00 0.00
MSLP
1011.18 1011.00 1010.96 1011.11 1011.40 1011.75 1012.08 1012.32 1012.42 1012.39 1012.28 1012.16 1012.11 1012.15 1012.30 1012.55 1012.83 1013.09 1013.28 1013.39 1013.41 1013.38 1013.34 1013.34 1013.39 1013.50 1013.67 1013.85 1014.03 1014.18 1014.29 1014.38 1014.46 1014.56 1014.68 1014.84 1015.04 1015.26 1015.48 1015.68 1015.85 1015.99 1016.10
1010.89 1010.84 1010.93 1011.18 1011.54 1011.92 1012.26 1012.49 1012.58 1012.55 1012.47 1012.39 1012.39 1012.50 1012.71 1012.98 1013.27 1013.51 1013.67 1013.72 1013.70 1013.63 1013.58 1013.57 1013.63 1013.75 1013.93 1014.12 1014.30 1014.45 1014.56 1014.65 1014.74 1014.84 1014.98 1015.16 1015.38 1015.60 1015.82 1016.01 1016.17 1016.30 1016.40
1010.59 1010.65 1010.85 1011.19 1011.60 1012.03 1012.39 1012.62 1012.73 1012.72 1012.68 1012.65 1012.71 1012.86 1013.10 1013.38 1013.65 1013.85 1013.95 1013.96 1013.89 1013.81 1013.74 1013.74 1013.81 1013.96 1014.14 1014.33 1014.50 1014.64 1014.74 1014.83 1014.92 1015.04 1015.21 1015.41 1015.64 1015.87 1016.08 1016.27 1016.42 1016.55 1016.66
1010.34 1010.48 1010.76 1011.17 1011.64 1012.11 1012.49 1012.75 1012.88 1012.91 1012.91 1012.93 1013.03 1013.20 1013.44 1013.70 1013.93 1014.08 1014.13 1014.09 1014.00 1013.91 1013.86 1013.89 1013.98 1014.14 1014.32 1014.49 1014.64 1014.75 1014.84 1014.92 1015.02 1015.17 1015.36 1015.58 1015.83 1016.06 1016.28 1016.46 1016.61 1016.75 1016.88
1010.17 1010.37 1010.71 1011.17 1011.68 1012.18 1012.59 1012.87 1013.03 1013.11 1013.14 1013.21 1013.33 1013.51 1013.74 1013.96 1014.13 1014.22 1014.22 1014.16 1014.07 1014.00 1013.98 1014.04 1014.16 1014.33 1014.50 1014.66 1014.77 1014.84 1014.90 1014.97 1015.08 1015.25 1015.46 1015.71 1015.97 1016.22 1016.43 1016.61 1016.76 1016.90 1017.06
1010.08 1010.32 1010.70 1011.20 1011.74 1012.26 1012.69 1012.99 1013.17 1013.28 1013.35 1013.45 1013.59 1013.77 1013.97 1014.14 1014.26 1014.31 1014.28 1014.21 1014.13 1014.10 1014.13 1014.24 1014.39 1014.57 1014.73 1014.85 1014.92 1014.95 1014.98 1015.03 1015.14 1015.32 1015.56 1015.84 1016.11 1016.36 1016.57 1016.73 1016.88 1017.03 1017.21
1010.09 1010.34 1010.75 1011.27 1011.82 1012.34 1012.77 1013.08 1013.28 1013.41 1013.51 1013.63 1013.79 1013.97 1014.15 1014.29 1014.38 1014.39 1014.34 1014.28 1014.24 1014.26 1014.34 1014.50 1014.69 1014.87 1015.01 1015.09 1015.11 1015.10 1015.09 1015.13 1015.24 1015.44 1015.69 1015.99 1016.27 1016.52 1016.72 1016.87 1017.00 1017.15 1017.34
1010.15 1010.42 1010.84 1011.37 1011.91 1012.42 1012.82 1013.12 1013.32 1013.47 1013.60 1013.75 1013.93 1014.13 1014.30 1014.44 1014.50 1014.50 1014.45 1014.41 1014.41 1014.47 1014.61 1014.80 1015.02 1015.20 1015.32 1015.36 1015.34 1015.28 1015.25 1015.27 1015.38 1015.59 1015.87 1016.18 1016.47 1016.71 1016.90 1017.03 1017.14 1017.27 1017.45
1010.25 1010.54 1010.97 1011.49 1012.01 1012.48 1012.84 1013.11 1013.30 1013.46 1013.62 1013.81 1014.03 1014.25 1014.45 1014.59 1014.66 1014.66 1014.62 1014.60 1014.62 1014.72 1014.89 1015.11 1015.33 1015.51 1015.61 1015.63 1015.57 1015.48 1015.42 1015.44 1015.55 1015.77 1016.07 1016.39 1016.68 1016.92 1017.09 1017.21 1017.29 1017.40 1017.56
1010.33 1010.66 1011.11 1011.62 1012.10 1012.52 1012.83 1013.06 1013.23 1013.40 1013.59 1013.82 1014.09 1014.37 1014.60 1014.77 1014.85 1014.87 1014.84 1014.82 1014.86 1014.97 1015.15 1015.37 1015.59 1015.76 1015.84 1015.84 1015.76 1015.66 1015.59 1015.61 1015.72 1015.95 1016.25 1016.58 1016.88 1017.12 1017.28 1017.38 1017.45 1017.53 1017.66
1010.38 1010.77 1011.24 1011.73 1012.18 1012.53 1012.79 1012.97 1013.13 1013.29 1013.51 1013.80 1014.13 1014.46 1014.75 1014.96 1015.07 1015.09 1015.07 1015.05 1015.08 1015.17 1015.34 1015.54 1015.75 1015.90 1015.98 1015.96 1015.89 1015.79 1015.72 1015.74 1015.86 1016.09 1016.39 1016.72 1017.02 1017.25 1017.42 1017.51 1017.57 1017.64 1017.76
1010.36 1010.81 1011.32 1011.81 1012.21 1012.52 1012.72 1012.86 1012.99 1013.16 1013.41 1013.75 1014.13 1014.53 1014.87 1015.12 1015.26 1015.30 1015.28 1015.24 1015.24 1015.31 1015.44 1015.62 1015.80 1015.94 1016.01 1016.00 1015.94 1015.86 1015.81 1015.83 1015.95 1016.17 1016.46 1016.77 1017.07 1017.30 1017.47 1017.58 1017.65 1017.73 1017.85
1010.26 1010.79 1011.33 1011.81 1012.19 1012.45 1012.60 1012.71 1012.82 1013.00 1013.28 1013.65 1014.09 1014.53 1014.92 1015.22 1015.39 1015.44 1015.42 1015.37 1015.34 1015.37 1015.47 1015.61 1015.76 1015.90 1015.97 1015.99 1015.95 1015.89 1015.86 1015.89 1016.00 1016.20 1016.45 1016.74 1017.02 1017.26 1017.44 1017.57 1017.67 1017.78 1017.91
1010.05 1010.65 1011.23 1011.72 1012.08 1012.31 1012.44 1012.52 1012.63 1012.81 1013.11 1013.51 1013.98 1014.46 1014.89 1015.21 1015.41 1015.49 1015.48 1015.42 1015.38 1015.38 1015.45 1015.56 1015.70 1015.83 1015.91 1015.95 1015.95 1015.92 1015.91 1015.94 1016.03 1016.19 1016.40 1016.65 1016.90 1017.13 1017.32 1017.49 1017.64 1017.78 1017.94
1009.74 1010.40 1011.01 1011.50 1011.86 1012.08 1012.21 1012.29 1012.40 1012.59 1012.90 1013.31 1013.79 1014.29 1014.73 1015.09 1015.32 1015.43 1015.44 1015.41 1015.37 1015.37 1015.42 1015.52 1015.65 1015.78 1015.89 1015.96 1015.99 1015.99 1015.99 1016.02 1016.08 1016.20 1016.36 1016.55 1016.76 1016.97 1017.17 1017.36 1017.55 1017.75 1017.95
1009.35 1010.04 1010.66 1011.16 1011.53 1011.77 1011.91 1012.02 1012.15 1012.36 1012.67 1013.07 1013.54 1014.02 1014.47 1014.84 1015.10 1015.26 1015.33 1015.34 1015.35 1015.38 1015.44 1015.54 1015.68 1015.81 1015.94 1016.03 1016.09 1016.13 1016.14 1016.16 1016.20 1016.27 1016.36 1016.49 1016.65 1016.82 1017.02 1017.23 1017.46 1017.69 1017.93
1008.92 1009.60 1010.22 1010.73 1011.11 1011.39 1011.58 1011.74 1011.91 1012.14 1012.44 1012.82 1013.25 1013.71 1014.14 1014.51 1014.81 1015.02 1015.16 1015.26 1015.34 1015.42 1015.51 1015.64 1015.78 1015.93 1016.06 1016.18 1016.27 1016.32 1016.36 1016.38 1016.40 1016.42 1016.46 1016.53 1016.63 1016.76 1016.94 1017.15 1017.39 1017.65 1017.91
1008.50 1009.15 1009.74 1010.24 1010.66 1010.99 1011.25 1011.48 1011.71 1011.96 1012.26 1012.60 1012.99 1013.39 1013.79 1014.16 1014.48 1014.76 1014.98 1015.18 1015.34 1015.50 1015.65 1015.80 1015.95 1016.10 1016.24 1016.37 1016.48 1016.56 1016.62 1016.66 1016.67 1016.67 1016.67 1016.68 1016.72 1016.81 1016.95 1017.14 1017.37 1017.63 1017.89
1008.15 1008.73 1009.27 1009.77 1010.22 1010.61 1010.96 1011.28 1011.58 1011.87 1012.17 1012.48 1012.80 1013.14 1013.48 1013.83 1014.18 1014.51 1014.82 1015.11 1015.37 1015.60 1015.81 1015.98 1016.14 1016.29 1016.43 1016.56 1016.69 1016.80 1016.89 1016.96 1016.99 1016.99 1016.97 1016.95 1016.94 1016.98 1017.06 1017.21 1017.41 1017.65 1017.89
1007.90 1008.39 1008.88 1009.36 1009.84 1010.30 1010.74 1011.16 1011.54 1011.88 1012.19 1012.46 1012.72 1012.99 1013.27 1013.59 1013.93 1014.31 1014.69 1015.07 1015.42 1015.72 1015.97 1016.16 1016.32 1016.45 1016.58 1016.71 1016.85 1016.99 1017.13 1017.24 1017.31 1017.34 1017.33 1017.29 1017.25 1017.24 1017.27 1017.36 1017.51 1017.71 1017.92
1007.76 1008.16 1008.58 1009.04 1009.54 1010.06 1010.60 1011.11 1011.58 1011.98 1012.30 1012.55 1012.76 1012.96 1013.17 1013.44 1013.77 1014.17 1014.60 1015.04 1015.45 1015.81 1016.09 1016.30 1016.45 1016.56 1016.66 1016.79 1016.94 1017.12 1017.30 1017.48 1017.61 1017.69 1017.70 1017.67 1017.60 1017.55 1017.52 1017.55 1017.64 1017.78 1017.94
1007.71 1008.02 1008.37 1008.79 1009.29 1009.87 1010.48 1011.10 1011.66 1012.13 1012.48 1012.72 1012.89 1013.02 1013.18 1013.39 1013.69 1014.09 1014.54 1015.02 1015.47 1015.87 1016.16 1016.37 1016.50 1016.60 1016.68 1016.80 1016.96 1017.18 1017.42 1017.66 1017.86 1017.99 1018.05 1018.03 1017.95 1017.86 1017.78 1017.74 1017.76 1017.84 1017.95
1007.71 1007.93 1008.20 1008.57 1009.06 1009.66 1010.34 1011.04 1011.69 1012.23 1012.63 1012.89 1013.04 1013.14 1013.24 1013.41 1013.67 1014.05 1014.50 1015.00 1015.47 1015.88 1016.19 1016.39 1016.51 1016.59 1016.66 1016.77 1016.95 1017.19 1017.48 1017.78 1018.04 1018.23 1018.33 1018.33 1018.25 1018.12 1017.99 1017.89 1017.84 1017.86 1017.92
1007.70 1007.84 1008.02 1008.32 1008.77 1009.38 1010.10 1010.86 1011.59 1012.22 1012.69 1012.99 1013.15 1013.24 1013.31 1013.45 1013.68 1014.03 1014.47 1014.96 1015.44 1015.86 1016.18 1016.38 1016.50 1016.57 1016.63 1016.75 1016.93 1017.19 1017.51 1017.85 1018.17 1018.40 1018.53 1018.54 1018.46 1018.31 1018.14 1017.98 1017.87 1017.83 1017.84
1007.63 1007.68 1007.77 1007.99 1008.39 1008.97 1009.70 1010.52 1011.32 1012.03 1012.57 1012.94 1013.15 1013.27 1013.34 1013.46 1013.68 1014.00 1014.43 1014.91 1015.40 1015.82 1016.15 1016.37 1016.50 1016.58 1016.65 1016.76 1016.95 1017.22 1017.55 1017.91 1018.24 1018.50 1018.64 1018.67 1018.58 1018.41 1018.21 1018.01 1017.84 1017.75 1017.71
1007.49 1007.45 1007.45 1007.58 1007.90 1008.43 1009.16 1010.00 1010.86 1011.65 1012.29 1012.74 1013.03 1013.19 1013.30 1013.44 1013.65 1013.96 1014.38 1014.86 1015.35 1015.79 1016.14 1016.39 1016.54 1016.63 1016.71 1016.83 1017.01 1017.27 1017.60 1017.95 1018.28 1018.54 1018.69 1018.72 1018.63 1018.45 1018.23 1017.99 1017.79 1017.65 1017.57
Thickness
5786 5787 5786 5785 5783 5782 5781 5780 5780 5779 5778 5777 5777 5775 5774 5773 5772 5770 5769 5768 5767 5766 5764 5763 5762 5760 5759 5758 5756 5755 5754 5753 5752 5751 5750 5749 5748 5747 5746 5745 5744 5742 5741
5792 5789 5786 5785 5783 5782 5780 5779 5778 5777 5777 5776 5775 5774 5772 5771 5770 5769 5768 5766 5765 5764 5763 5762 5760 5759 5757 5756 5754 5753 5752 5751 5750 5749 5748 5748 5746 5745 5745 5744 5742 5741 5740
5793 5789 5786 5784 5782 5781 5779 5778 5777 5776 5775 5775 5774 5772 5771 5770 5769 5768 5766 5765 5764 5763 5762 5760 5758 5757 5755 5753 5752 5751 5750 5749 5748 5747 5747 5746 5745 5744 5743 5742 5741 5740 5739
5793 5789 5785 5783 5782 5780 5778 5777 5776 5775 5774 5773 5772 5771 5770 5768 5767 5766 5765 5764 5763 5761 5760 5759 5757 5755 5753 5751 5750 5749 5748 5748 5747 5745 5745 5744 5744 5742 5742 5741 5740 5739 5738
5792 5788 5785 5783 5781 5779 5777 5776 5775 5774 5773 5772 5771 5770 5768 5767 5766 5765 5764 5762 5761 5759 5758 5757 5755 5753 5751 5750 5748 5748 5747 5746 5745 5744 5743 5742 5742 5741 5740 5739 5738 5737 5736
5790 5787 5784 5782 5780 5778 5776 5775 5774 5773 5772 5771 5770 5768 5767 5766 5765 5764 5762 5761 5759 5758 5756 5755 5753 5752 5750 5749 5747 5746 5746 5745 5744 5743 5741 5740 5740 5739 5739 5738 5737 5736 5735
5788 5785 5783 5781 5778 5777 5775 5774 5772 5772 5770 5769 5768 5767 5766 5765 5763 5762 5761 5759 5758 5756 5755 5754 5752 5751 5749 5748 5746 5745 5745 5744 5743 5741 5740 5739 5738 5738 5737 5736 5735 5735 5734
5788 5784 5781 5779 5777 5775 5774 5772 5771 5770 5769 5768 5767 5765 5764 5763 5762 5761 5759 5758 5756 5755 5754 5752 5751 5749 5748 5747 5745 5744 5744 5743 5740 5739 5738 5737 5737 5736 5735 5735 5733 5733 5732
5786 5783 5779 5777 5775 5773 5772 5771 5770 5769 5768 5766 5765 5764 5763 5762 5760 5759 5758 5756 5755 5754 5752 5751 5750 5748 5747 5746 5745 5744 5742 5741 5739 5737 5736 5735 5735 5734 5734 5733 5732 5731 5730
5782 5780 5778 5775 5774 5772 5771 5769 5768 5767 5766 5765 5763 5762 5761 5760 5759 5758 5756 5755 5754 5752 5751 5750 5749 5747 5746 5744 5744 5743 5741 5739 5737 5736 5735 5734 5734 5733 5732 5732 5730 5729 5728
5778 5777 5776 5774 5772 5771 5769 5768 5766 5765 5764 5763 5762 5761 5759 5758 5757 5756 5755 5754 5752 5751 5750 5749 5748 5746 5745 5743 5742 5741 5740 5739 5737 5735 5734 5734 5733 5732 5732 5730 5729 5728 5726
5774 5774 5774 5772 5771 5769 5768 5766 5764 5763 5762 5761 5760 5759 5758 5756 5755 5754 5753 5752 5751 5750 5749 5747 5746 5745 5744 5742 5741 5740 5739 5737 5736 5734 5734 5733 5731 5730 5730 5728 5727 5726 5724
5776 5775 5773 5771 5770 5768 5767 5764 5762 5761 5760 5759 5758 5757 5756 5755 5754 5753 5751 5750 5749 5748 5747 5746 5745 5744 5743 5741 5740 5739 5738 5736 5735 5734 5733 5731 5730 5729 5728 5726 5725 5724 5723
5775 5774 5772 5771 5768 5767 5765 5763 5761 5759 5758 5757 5756 5755 5754 5753 5752 5751 5750 5749 5748 5747 5745 5745 5743 5742 5741 5741 5739 5738 5737 5736 5734 5732 5731 5730 5729 5728 5726 5725 5724 5723 5721
5776 5773 5772 5770 5768 5766 5764 5762 5760 5758 5757 5757 5756 5754 5754 5752 5751 5750 5749 5748 5747 5745 5744 5743 5742 5741 5740 5739 5738 5737 5735 5734 5732 5731 5730 5729 5727 5726 5725 5724 5722 5721 5719
5778 5774 5772 5770 5768 5765 5763 5762 5760 5758 5757 5756 5755 5754 5753 5752 5751 5749 5748 5748 5746 5745 5744 5743 5741 5740 5739 5738 5737 5735 5734 5732 5731 5730 5729 5728 5726 5725 5724 5722 5721 5719 5718
5780 5776 5772 5769 5767 5765 5763 5762 5760 5758 5756 5755 5755 5754 5753 5752 5751 5749 5747 5747 5746 5745 5744 5742 5741 5739 5738 5737 5735 5733 5732 5731 5729 5728 5728 5727 5725 5724 5722 5721 5720 5718 5716
5780 5775 5771 5770 5765 5763 5762 5761 5760 5758 5756 5754 5754 5754 5753 5752 5750 5749 5747 5746 5746 5745 5744 5742 5739 5737 5735 5734 5733 5732 5730 5729 5728 5728 5727 5726 5724 5723 5722 5720 5719 5717 5715
5779 5774 5770 5768 5764 5762 5761 5760 5759 5757 5755 5754 5753 5752 5752 5751 5750 5748 5747 5747 5746 5744 5743 5742 5739 5736 5734 5733 5732 5730 5730 5729 5728 5727 5726 5725 5724 5723 5721 5720 5718 5716 5715
5777 5773 5769 5765 5762 5760 5758 5756 5755 5754 5753 5752 5752 5751 5751 5749 5749 5748 5747 5746 5745 5743 5741 5740 5737 5736 5734 5732 5732 5729 5728 5728 5728 5727 5726 5725 5724 5722 5721 5720 5718 5716 5715
5773 5770 5767 5763 5760 5758 5754 5751 5749 5749 5750 5749 5750 5750 5750 5748 5748 5747 5746 5745 5744 5742 5740 5739 5737 5734 5732 5732 5727 5723 5725 5727 5726 5726 5726 5725 5724 5723 5721 5720 5718 5716 5715
5773 5770 5767 5763 5759 5758 5755 5752 5751 5749 5748 5748 5748 5748 5748 5747 5746 5746 5745 5744 5743 5741 5739 5738 5737 5733 5731 5731 5726 5719 5714 5716 5722 5726 5725 5725 5724 5723 5722 5720 5718 5717 5715
5772 5770 5768 5762 5759 5756 5754 5751 5748 5746 5744 5743 5743 5744 5746 5746 5746 5745 5744 5743 5742 5741 5738 5738 5737 5734 5729 5730 5730 5724 5714 5710 5715 5720 5723 5724 5724 5723 5722 5720 5719 5717 5716
5773 5771 5767 5762 5758 5755 5753 5750 5746 5743 5740 5741 5742 5742 5743 5744 5744 5744 5744 5742 5741 5740 5739 5738 5737 5735 5732 5728 5729 5730 5727 5723 5716 5713 5717 5721 5722 5722 5722 5721 5719 5718 5717
5773 5769 5765 5760 5757 5754 5752 5750 5746 5743 5742 5741 5740 5739 5739 5741 5742 5742 5742 5741 5740 5739 5739 5738 5737 5736 5734 5731 5729 5728 5727 5725 5723 5716 5711 5715 5718 5721 5721 5721 5720 5718 5717
5769 5767 5763 5758 5754 5753 5751 5749 5745 5742 5740 5738 5737 5736 5737 5738 5739 5740 5740 5740 5739 5739 5738 5738 5737 5736 5734 5733 5731 5730 5727 5724 5721 5718 5713 5712 5713 5717 5720 5720 5719 5718 5717